Weather History for Andover, NJ

Change the Weather History Date:

Saturday, January 18, 2014

  Actual Average (KFWN) Record (KFWN)
Temperature  
Mean Temperature 29 °F -  
Max Temperature 34 °F 30 °F 61 °F (2006)
Min Temperature 23 °F 11 °F -14 °F (1971)
Degree Days  
Heating Degree Days 36    
Moisture  
Dew Point 23 °F    
Average Humidity 80    
Maximum Humidity 100    
Minimum Humidity 64    
Precipitation  
Precipitation 0.13 in - - ()
Sea Level Pressure  
Sea Level Pressure 29.81 in    
Wind  
Wind Speed 3 mph (NNE)    
Max Wind Speed 7 mph    
Max Gust Speed 17 mph    
Averages and records for this station are not official NWS values.
T = Trace of Precipitation, MM = Missing Value Source: NWS Daily Summary

Daily Weather History Graph

Daily Weather History Graph

Search for Another Location

Airport:

Trip Planner

Search our weather history database for the weather conditions in past years. The results will help you decide how hot, cold, wet, or windy it might be!

Date:

Astronomy

Jan. 18, 2014 Rise Set
Actual Time 7:20 AM EST 4:58 PM EST
Civil Twilight 6:50 AM EST 5:29 PM EST
Nautical Twilight 6:16 AM EST 6:02 PM EST
Astronomical Twilight 5:43 AM EST 6:35 PM EST
Moon 7:40 PM EST (1/18) 8:17 AM EST (1/18)
Length of Visible Light 10h 38m
Length of Day
9h 38m
Waning Gibbous, 94% of the Moon is Illuminated
Jan 18
Waning Gibbous
Jan 24
Last Quarter
Jan 30
New
Feb 6
First Quarter
Feb 14
Full

Hourly Weather History & Observations

Time (EST) Temp. Windchill Dew Point Humidity Pressure Visibility Wind Dir Wind Speed Gust Speed Precip Events Conditions
12:54 AM 28.0 °F - 27.0 °F 96% 29.86 in - Calm Calm - N/A   Unknown
1:54 AM 28.9 °F 23.9 °F 27.0 °F 92% 29.85 in - North 4.6 mph - N/A   Unknown
2:54 AM 28.9 °F 25.2 °F 27.0 °F 92% 29.83 in - Variable 3.5 mph - N/A   Unknown
3:54 AM 30.0 °F 26.5 °F 27.0 °F 88% 29.80 in - Variable 3.5 mph - N/A   Unknown
4:54 AM 30.0 °F 24.1 °F 27.0 °F 88% 29.79 in - NNE 5.8 mph - N/A   Unknown
5:54 AM 28.9 °F 22.8 °F 27.0 °F 92% 29.77 in - NE 5.8 mph - N/A   Unknown
6:54 AM 30.0 °F - 28.0 °F 92% 29.76 in - Calm Calm - N/A   Unknown
7:54 AM 30.0 °F - 28.0 °F 92% 29.77 in - Calm Calm - 0.02 in   Unknown
8:54 AM 30.0 °F - 30.0 °F 100% 29.78 in - Calm Calm - 0.06 in   Unknown
9:54 AM 30.9 °F - 30.9 °F 100% 29.79 in - Calm Calm - 0.05 in   Unknown
10:54 AM 34.0 °F 31.0 °F 30.0 °F 85% 29.76 in - Variable 3.5 mph - N/A   Unknown
11:54 AM 34.0 °F 28.8 °F 28.0 °F 79% 29.74 in - Variable 5.8 mph - N/A   Unknown
12:54 PM 34.0 °F 31.0 °F 24.1 °F 67% 29.73 in - Variable 3.5 mph - N/A   Unknown
1:54 PM 33.1 °F 28.7 °F 24.1 °F 70% 29.74 in - Variable 4.6 mph - N/A   Unknown
2:54 PM 32.0 °F 26.4 °F 23.0 °F 69% 29.75 in - Variable 5.8 mph - N/A   Unknown
3:54 PM 30.9 °F 27.5 °F 21.0 °F 67% 29.78 in - Variable 3.5 mph - N/A   Unknown
4:54 PM 28.9 °F 22.8 °F 19.0 °F 67% 29.82 in - Variable 5.8 mph 17.3 mph N/A   Unknown
5:54 PM 28.9 °F 22.8 °F 18.0 °F 64% 29.82 in - Variable 5.8 mph - N/A   Unknown
6:54 PM 27.0 °F 19.5 °F 18.0 °F 69% 29.85 in - Variable 6.9 mph - N/A   Unknown
7:54 PM 27.0 °F 21.6 °F 17.1 °F 66% 29.86 in - Variable 4.6 mph - N/A   Unknown
8:54 PM 26.1 °F 19.4 °F 17.1 °F 69% 29.88 in - Variable 5.8 mph - N/A   Unknown
9:54 PM 25.0 °F 20.7 °F 16.0 °F 69% 29.87 in - Variable 3.5 mph - N/A   Unknown
10:54 PM 24.1 °F - 15.1 °F 69% 29.88 in - Calm Calm - N/A   Unknown
11:54 PM 23.0 °F - 14.0 °F 68% 29.89 in - Calm Calm - N/A   Unknown